TimeEST,TemperatureF,Dew PointF,Humidity,Sea Level PressureIn,VisibilityMPH,Wind Direction,Wind SpeedMPH,Gust SpeedMPH,PrecipitationIn,Events,Conditions,WindDirDegrees,DateUTC
12:56 AM,37.9,26.1,62,30.22,10.0,North,3.5,-,N/A,,Overcast,10,2012-01-08 05:56:00
1:56 AM,37.0,26.1,65,30.22,10.0,Calm,Calm,-,N/A,,Overcast,0,2012-01-08 06:56:00
2:56 AM,34.0,26.1,73,30.24,10.0,North,3.5,-,N/A,,Overcast,360,2012-01-08 07:56:00
3:56 AM,34.0,26.1,73,30.24,10.0,Calm,Calm,-,N/A,,Overcast,0,2012-01-08 08:56:00
4:56 AM,33.1,26.1,75,30.24,10.0,Calm,Calm,-,N/A,,Overcast,0,2012-01-08 09:56:00
5:56 AM,32.0,26.1,79,30.26,10.0,Calm,Calm,-,N/A,,Overcast,0,2012-01-08 10:56:00
6:56 AM,30.9,26.1,82,30.27,10.0,Calm,Calm,-,N/A,,Overcast,0,2012-01-08 11:56:00
7:56 AM,30.9,27.0,85,30.27,10.0,North,5.8,-,N/A,,Mostly Cloudy,10,2012-01-08 12:56:00
8:56 AM,32.0,28.0,85,30.30,10.0,North,3.5,-,N/A,,Mostly Cloudy,350,2012-01-08 13:56:00
9:56 AM,37.9,30.0,73,30.32,10.0,NE,3.5,-,N/A,,Clear,40,2012-01-08 14:56:00
10:56 AM,42.1,28.9,60,30.34,10.0,ENE,10.4,-,N/A,,Mostly Cloudy,60,2012-01-08 15:56:00
11:56 AM,46.0,28.9,51,30.32,10.0,East,8.1,-,N/A,,Clear,80,2012-01-08 16:56:00
12:56 PM,48.0,30.0,50,30.29,10.0,NE,8.1,-,N/A,,Mostly Cloudy,50,2012-01-08 17:56:00
1:56 PM,50.0,28.9,44,30.26,10.0,NE,10.4,-,N/A,,Scattered Clouds,40,2012-01-08 18:56:00
2:56 PM,50.0,28.0,43,30.25,10.0,ENE,11.5,-,N/A,,Mostly Cloudy,60,2012-01-08 19:56:00
3:56 PM,48.9,28.0,44,30.26,10.0,NE,5.8,-,N/A,,Scattered Clouds,50,2012-01-08 20:56:00
4:56 PM,48.0,28.0,46,30.26,10.0,NE,8.1,-,N/A,,Mostly Cloudy,40,2012-01-08 21:56:00
5:56 PM,46.9,28.0,48,30.26,10.0,NE,8.1,-,N/A,,Scattered Clouds,40,2012-01-08 22:56:00
6:56 PM,46.0,26.1,46,30.27,10.0,NE,6.9,-,N/A,,Overcast,40,2012-01-08 23:56:00
7:56 PM,45.0,24.1,44,30.28,10.0,ENE,6.9,-,N/A,,Mostly Cloudy,70,2012-01-09 00:56:00
8:56 PM,44.1,24.1,45,30.27,10.0,ENE,6.9,-,N/A,,Overcast,60,2012-01-09 01:56:00
9:56 PM,43.0,23.0,45,30.25,10.0,East,6.9,-,N/A,,Mostly Cloudy,80,2012-01-09 02:56:00
10:56 PM,42.1,23.0,47,30.26,10.0,Calm,Calm,-,N/A,,Mostly Cloudy,0,2012-01-09 03:56:00
11:56 PM,42.1,24.1,49,30.24,10.0,NNE,6.9,-,N/A,,Overcast,30,2012-01-09 04:56:00